Flag for Cambodia Weather past 2 weeks in Phnom Penh, Cambodia

Now
88 °F

Scattered clouds.


Feels Like: 100 °F
Forecast: 77 / 92 °F
Wind: 5 mph from North

Location: Phnom-Penh / Pochentong

Current Time: Oct 1, 2014 at 12:07:11 PM

Latest Report: Oct 1, 2014 at 11:30 AM


Visibility: N/A

Pressure: 29.83 "Hg

Humidity: 70%

Dew point: 77 °F

Location of Phnom PenhLocation

Historic Weather in Phnom Penh — Graph

°F

Phnom Penh temperature yesterday

Maximum temperature yesterday: 93 °F (at 1:30 PM)
Minimum temperature yesterday: 79 °F (at 4:00 PM)
Average temperature yesterday: 84 °F

Past Weeks' High & Low Weather Summary

 TemperatureHumidityPressure
High95 °F (Sep 21, 2:30 PM)100% (Sep 16, 5:00 PM)29.89 "Hg (Sep 16, 5:00 PM)
Low75 °F (Sep 25, 8:30 PM)47% (Sep 25, 4:30 PM)29.56 "Hg (Sep 16, 2:00 PM)
Average85 °F78%29.78 "Hg
* Reported Sep 16 10:00 AM — Oct 1 10:30 AM, Phnom Penh, Weather by CustomWeather, © 2014

Note: Actual official high and low records may vary slightly from our data, if they occured in-between our weather recording intervals... More about our weather records

Advertising

Phnom Penh weather history for previous 24 hours

 ConditionsComfort  
Time TempWeatherWind HumidityBarometerVisibility
10:30 AM
Oct 1
88 °FScattered clouds.3 mph70%29.86 "HgN/A
10:00 AM86 °FPartly sunny.6 mph75%29.86 "HgN/A
9:30 AM86 °FPartly sunny.6 mph79%29.86 "HgN/A
9:00 AM86 °FPartly sunny.7 mph75%29.86 "HgN/A
8:30 AM84 °FScattered clouds.5 mph79%29.86 "HgN/A
8:00 AM84 °FScattered clouds.7 mph79%29.86 "HgN/A
7:30 AM82 °FPassing clouds.5 mph84%29.83 "HgN/A
7:00 AM81 °FScattered clouds.5 mph89%29.83 "HgN/A
6:30 AM81 °FScattered clouds.3 mph89%29.80 "HgN/A
1:00 AM79 °FClear.2 mph89%29.80 "Hg5 mi
11:30 PM
Sep 30
79 °FClear.1 mph89%29.80 "Hg5 mi
10:30 PM79 °FClear.No wind89%29.80 "Hg5 mi
10:00 PM79 °FPartly cloudy.No wind89%29.80 "Hg5 mi
9:30 PM79 °FPartly cloudy.No wind84%29.80 "Hg5 mi
9:00 PM79 °FPartly cloudy.2 mph84%29.80 "Hg5 mi
8:30 PM79 °FPartly cloudy.2 mph89%29.80 "Hg5 mi
8:00 PM79 °FPartly cloudy.5 mph89%29.80 "Hg5 mi
7:00 PM81 °FPartly cloudy.6 mph79%29.80 "Hg5 mi
6:00 PM84 °FPartly cloudy.1 mph74%29.77 "Hg6 mi
5:30 PM84 °FBroken clouds.No wind74%29.74 "HgN/A
5:00 PM82 °FBroken clouds.No wind79%29.74 "HgN/A
4:30 PM82 °FBroken clouds.7 mph79%29.74 "HgN/A
4:00 PM79 °FBroken clouds.12 mph89%29.74 "HgN/A
3:30 PM88 °FScattered clouds.3 mph66%29.71 "HgN/A
3:00 PM91 °FScattered clouds.6 mph59%29.71 "HgN/A
2:30 PM91 °FScattered clouds.7 mph59%29.71 "HgN/A
2:00 PM93 °FScattered clouds.6 mph59%29.71 "HgN/A
1:30 PM93 °FScattered clouds.2 mph56%29.74 "HgN/A
1:00 PM90 °FScattered clouds.5 mph67%29.77 "HgN/A
12:30 PM90 °FScattered clouds.3 mph63%29.80 "HgN/A
12:00 PM91 °FScattered clouds.5 mph59%29.80 "HgN/A
Weather by CustomWeather, © 2014

See weather overviewHow to use our weather pages